Location: Cruquius
(52.3348°N, 4.6319°E)
Time: 23:05:04
(UTC+00:00)

COSMOS 2487 - Pass Details

Date: 12 May 2021
Orbit: 431 x 433 km, 74.7° (Epoch: 24 June)

Event Time Altitude Azimuth Distance (km) Brightness Sun altitude
Rises 23:15:50 0° 343° (NNW) 2,419 7.6 -19.1°
Reaches altitude 10° 23:18:07 10° 355° (N) 1,546 6.4 -19.2°
Maximum altitude 23:21:06 28° 57° (ENE) 850 4.0 -19.2°
Enters shadow 23:22:24 22° 95° (E) 1,018 4.1 -19.2°
